Regional Weather Roundup
Issued by NWS

Home | Current Version | Previous Version | Text Only | Print | Product List | Glossary Off
Versions: 1 2 3 4 5 6 7 8 9 10 11 12 13 14 15 16 17 18 19 20 21 22 23 24 25 26 27 28 29 30 31 32 33 34 35 36 37 38 39 40 41 42 43 44 45 46 47 48 49 50

000
ASUS43 KLSX 220657
RWRMO

WEATHER SUMMARY FOR MISSOURI
NATIONAL WEATHER SERVICE SPRINGFIELD MO
100 AM CST WED NOV 22 2017

NOTE: "FAIR" INDICATES FEW OR NO CLOUDS BELOW 12,000 FEET WITH NO
       SIGNIFICANT WEATHER AND/OR OBSTRUCTIONS TO VISIBILITY.
       CURRENT SKY AND/OR WEATHER CONDITIONS ARE NOT AVAILABLE FOR
       CHILLICOTHE AND FARMINGTON.

MOZ001>031-035>038-043-044-053-054-220800-
...NORTHERN AND WESTERN MISSOURI...

CITY           SKY/WX    TMP DP  RH WIND       PRES   REMARKS
KANSAS CTY INT CLOUDY    22  14  71 NW7       30.39R WCI  13
LEE`S SUMMIT   CLOUDY    26  15  63 N9        30.39S WCI  17
ST JOSEPH      CLOUDY    20  12  71 N6        30.43R WCI  12
CHILLICOTHE      N/A     24  15  68 NW3       30.40R

$$
MOZ066>068-077>081-088>096-101>105-220800-
...SOUTHWEST MISSOURI...

CITY           SKY/WX    TMP DP  RH WIND       PRES   REMARKS
SPRINGFIELD    CLOUDY    30  19  63 N10       30.30R WCI  21
JOPLIN         CLOUDY    26  21  81 N8        30.37R WCI  18

$$
MOZ032>034-039>042-045>050-055>058-069>072-220800-
...CENTRAL MISSOURI...

CITY           SKY/WX    TMP DP  RH WIND       PRES   REMARKS
COLUMBIA       NOT AVBL
JEFFERSON CITY CLOUDY    30  18  60 NW3       30.35S
ROLLA          CLOUDY    26  19  74 NW3       30.31R
SEDALIA        CLOUDY    28  20  71 NW8       30.36F WCI  20
WARRENSBURG    CLOUDY    27  19  74 NW6       30.39R WCI  20

$$
MOZ051-052-059>065-220800-
...EAST CENTRAL MISSOURI...

CITY           SKY/WX    TMP DP  RH WIND       PRES   REMARKS
ST LOUIS INTL  CLEAR     29  20  69 N8        30.31R WCI  21

$$
MOZ072>076-082>087-097>100-106>115-220800-
...SOUTH CENTRAL AND SOUTHEAST MISSOURI...

CITY           SKY/WX    TMP DP  RH WIND       PRES   REMARKS
CAPE GIRARDEAU CLEAR     34  23  64 N18G30    30.27R WCI  23
POPLAR BLUFF   CLEAR     37  22  54 N17G26    30.25R WCI  27
WEST PLAINS    CLEAR     32  19  58 N6        30.25F WCI  26

$$



USA.gov is the U.S. government's official web portal to all federal, state and local government web resources and services.